[[{"header":{"parameterUnit":"m.s-1","parameterCategory":1,"la1":30.2991,"la2":30.254,"lo1":-89.0895,"lo2":-89.0444,"dy":0.0017,"dx":0.0017,"nx":28,"ny":28,"refTime":"2025-06-06T09:00:00:Z","depth":0,"parameterNumber":2,"parameterNumberName":"U-component_of_WINDS"},"data":[0,0,0,0,0,0,0,0,0,0,0,0,0,0,0,0,0,0,0,0,0,0,0,0,0,0,0,0,0,0,0,0,0,0,0,0,0,0,0,0,0,0,0,0,0,0,0,0,0,0,0,0,0,0,0,0,0,0,2.1067,2.1069,0,2.1205,2.1207,2.1208,2.1273,2.1273,2.1273,2.1273,2.1418,2.1422,2.1426,0,0,0,0,0,0,0,0,0,0,0,0,0,2.0866,2.0869,2.1067,2.1069,2.1071,2.1205,2.1207,2.1209,2.1273,2.1273,2.1273,2.1273,2.1417,2.1421,2.1426,0,0,0,0,0,0,0,0,0,0,0,0,0,2.0974,2.087,2.1067,2.1119,2.1125,2.1204,2.1207,2.1209,2.1273,2.1273,2.1273,2.1273,2.1415,2.1421,2.1427,2.1466,0,0,2.1445,2.1448,0,0,0,0,0,0,0,0,2.0967,2.0981,2.1109,2.1115,2.1122,2.1222,2.1189,2.1295,2.1273,2.1217,2.1273,2.1273,2.1353,2.1364,2.139,2.1473,2.1479,2.1446,2.1449,2.1452,2.1453,0,0,0,0,0,0,0,2.096,2.0975,2.1122,2.1111,2.1119,2.1137,2.1152,2.121,2.1284,2.1222,2.1227,2.1242,2.1357,2.1385,2.1394,2.1482,2.1445,2.1451,2.1454,2.1457,2.1607,2.1608,0,0,0,0,0,0,2.0943,2.0969,2.1117,2.1126,2.1043,2.1141,2.1158,2.119,2.1284,2.1298,2.1242,2.1244,2.1374,2.1387,2.14,2.1454,2.1452,2.1457,2.1461,2.1607,2.1607,2.1608,0,0,0,0,0,0,2.0939,2.0956,2.1112,2.1049,2.107,2.1145,2.118,2.1193,2.1221,2.1299,2.1313,2.1256,2.1375,2.1391,2.145,2.146,2.146,2.1465,2.1606,2.1607,2.1608,2.1561,0,0,0,0,0,0,2.0933,2.0954,2.0968,2.1049,2.1073,2.1157,2.1181,2.1195,2.123,2.1235,2.1316,2.133,2.1376,2.144,2.1456,2.1468,2.147,2.1606,2.1607,2.1607,2.1562,2.156,2.1558,0,0,0,0,0,2.0925,2.0949,2.0968,2.0986,2.1092,2.1158,2.1172,2.1224,2.1231,2.1247,2.1298,2.1327,2.1456,2.1446,2.1463,2.1477,2.1605,2.1606,2.1607,2.1562,2.156,2.1558,0,0,0,0,0,0,2.0868,2.0961,2.0982,2.1033,2.1087,2.1168,2.119,2.1219,2.1273,2.1275,2.1339,2.1356,2.141,2.145,2.1437,2.1522,2.1534,2.1538,2.1494,2.1492,2.149,2.1479,2.1475,0,0,0,0,0,2.0861,2.0905,2.0985,2.1022,2.1048,2.1114,2.1145,2.118,2.1239,2.1262,2.1317,2.1375,2.1429,2.1463,2.1517,2.1568,2.1588,2.1587,2.1585,2.1583,2.1586,2.1619,2.162,2.1611,2.1611,2.1611,0,0,2.0848,2.0904,2.0928,2.1012,2.1058,2.1104,2.1133,2.118,2.1216,2.127,2.1328,2.1371,2.144,2.1495,2.1523,2.1531,2.1594,2.1585,2.1582,2.1587,2.162,2.1621,2.1622,2.1612,2.1612,2.1611,0,0,2.0847,2.0893,2.093,2.0976,2.1045,2.109,2.1098,2.1176,2.1207,2.1266,2.1309,2.1353,2.1444,2.1492,2.1528,2.1549,2.1579,2.1565,2.1555,2.1586,2.1587,2.1588,2.1596,2.1598,2.1568,2.1568,2.1568,0,2.0821,2.0891,2.0946,2.0991,2.1028,2.1079,2.1119,2.1161,2.1245,2.127,2.1277,2.1394,2.1444,2.1512,2.1518,2.1545,2.1559,2.1555,2.1582,2.1584,2.1585,2.1594,2.1597,2.1566,2.1566,2.1566,2.1566,0,2.0857,2.0906,2.0928,2.1006,2.1046,2.1088,2.1151,2.1185,2.1218,2.1263,2.1325,2.1386,2.1455,2.1474,2.1506,2.1548,2.1551,2.1569,2.1582,2.1583,2.1593,2.1596,2.1563,2.1563,2.1564,2.1565,0,0,2.0821,2.0932,2.0939,2.0977,2.1059,2.1098,2.1144,2.121,2.1239,2.1296,2.1337,2.1414,2.1433,2.1474,2.1513,2.154,2.1555,2.1556,2.1559,2.1554,2.1607,2.1592,2.1595,2.1576,2.1577,2.1577,2.1601,0,2.0832,2.0915,2.0967,2.103,2.1076,2.1128,2.1169,2.1224,2.1268,2.1316,2.1365,2.1419,2.1439,2.1464,2.1493,2.1547,2.1566,2.1546,2.1617,2.1618,2.1597,2.16,2.1584,2.1603,2.1605,2.1606,2.1606,0,2.0854,2.091,2.0977,2.1056,2.1078,2.1113,2.1179,2.1224,2.1289,2.132,2.1367,2.1407,2.146,2.1469,2.1545,2.153,2.1563,2.1594,2.1596,2.1604,2.1612,2.1608,2.161,2.1613,2.1613,2.1612,2.1612,0,2.0822,2.0914,2.0967,2.0997,2.1091,2.1115,2.1155,2.1221,2.1258,2.1317,2.1342,2.1407,2.1442,2.1492,2.155,2.1551,2.162,2.1634,2.1648,2.1647,2.166,2.1658,2.1667,2.1681,2.1681,2.1681,2.1681,0,2.0828,2.0867,2.0954,2.0986,2.1033,2.1094,2.1139,2.1185,2.1243,2.1287,2.1336,2.1377,2.145,2.15,2.1546,2.1603,2.1618,2.1646,2.1657,2.1641,2.1637,2.1663,2.1663,2.1682,2.1681,2.1681,2.1681,0,2.0799,2.0858,2.0919,2.1004,2.1026,2.1057,2.113,2.1165,2.1213,2.1267,2.1284,2.1359,2.1421,2.1484,2.1567,2.1598,2.1654,2.167,2.1631,2.1638,2.1649,2.1647,2.1674,2.1681,2.169,2.169,2.1689,0,2.0798,2.083,2.0918,2.095,2.099,2.1041,2.108,2.1143,2.1182,2.1261,2.1287,2.1352,2.1408,2.1505,2.1568,2.1633,2.1651,2.1656,2.1661,2.1645,2.1652,2.1649,2.1654,2.1654,2.1653,2.1653,2.1653,0,2.0791,2.082,2.0873,2.0937,2.0982,2.1036,2.1092,2.1116,2.1191,2.1232,2.1296,2.1339,2.1425,2.149,2.1563,2.1608,2.1643,2.1651,2.1658,2.1641,2.1618,2.1631,2.1625,2.165,2.165,2.165,2.165,2.1651,2.0776,2.0808,2.0876,2.0934,2.0983,2.1035,2.1072,2.1125,2.1179,2.1253,2.1288,2.1353,2.1422,2.1523,2.1567,2.162,2.1629,2.1639,2.1641,2.1643,2.1639,2.161,2.1633,2.1633,2.1634,2.1634,2.1634,0,2.0772,2.0819,2.0872,2.0949,2.0996,2.1026,2.109,2.1128,2.1184,2.1244,2.1298,2.1373,2.1438,2.1507,2.1576,2.1605,2.1623,2.1621,2.1619,2.1629,2.1627,2.1614,2.1605,2.1605,2.1605,2.1605,2.1605,2.1605,2.0775,2.0831,2.0868,2.0949,2.0997,2.106,2.1094,2.1143,2.1192,2.1273,2.1327,2.1371,2.1436,2.1511,2.1572,2.1591,2.1614,2.1607,2.1631,2.1627,2.1629,2.1631,2.1619,2.1612,2.1612,2.163,2.163,2.163]},{"header":{"parameterUnit":"m.s-1","parameterCategory":1,"la1":30.2991,"la2":30.254,"lo1":-89.0895,"lo2":-89.0444,"dy":0.0017,"dx":0.0017,"nx":28,"ny":28,"refTime":"2025-06-06T09:00:00:Z","depth":0,"parameterNumber":3,"parameterNumberName":"V-component_of_WINDS"},"data":[0,0,0,0,0,0,0,0,0,0,0,0,0,0,0,0,0,0,0,0,0,0,0,0,0,0,0,0,0,0,0,0,0,0,0,0,0,0,0,0,0,0,0,0,0,0,0,0,0,0,0,0,0,0,0,0,0,0,5.5764,5.5765,0,5.5866,5.5867,5.5868,5.5856,5.5855,5.5853,5.5851,5.5946,5.595,5.5954,0,0,0,0,0,0,0,0,0,0,0,0,0,5.5546,5.555,5.5764,5.5765,5.5766,5.5866,5.5867,5.5869,5.5856,5.5854,5.5852,5.5851,5.5944,5.5949,5.5954,0,0,0,0,0,0,0,0,0,0,0,0,0,5.5644,5.5552,5.5764,5.5773,5.5774,5.5866,5.5867,5.5869,5.5857,5.5854,5.5852,5.585,5.5943,5.5949,5.5955,5.604,0,0,5.5973,5.5976,0,0,0,0,0,0,0,0,5.5638,5.5652,5.577,5.5772,5.5774,5.5846,5.5825,5.5926,5.5857,5.5825,5.5851,5.5849,5.5914,5.5922,5.5946,5.6045,5.6049,5.5974,5.5977,5.598,5.5982,0,0,0,0,0,0,0,5.5631,5.5647,5.5804,5.5772,5.5774,5.5768,5.5779,5.5844,5.5881,5.5828,5.5827,5.584,5.5914,5.5941,5.5948,5.605,5.5973,5.5979,5.5983,5.5985,5.6221,5.6224,0,0,0,0,0,0,5.5624,5.5642,5.5801,5.5807,5.5699,5.5774,5.5786,5.5825,5.5881,5.5887,5.5842,5.5839,5.5931,5.5941,5.5952,5.6054,5.598,5.5985,5.5989,5.6219,5.6222,5.6225,0,0,0,0,0,0,5.5619,5.5638,5.5797,5.5724,5.5744,5.578,5.5824,5.5829,5.5855,5.5892,5.5897,5.5863,5.593,5.5943,5.6019,5.6058,5.5988,5.5994,5.6216,5.622,5.6224,5.6262,0,0,0,0,0,0,5.5613,5.5637,5.5673,5.5725,5.5748,5.5865,5.5827,5.5832,5.5866,5.5864,5.5912,5.5918,5.5929,5.601,5.6025,5.6065,5.5998,5.6212,5.6218,5.6222,5.6257,5.6266,5.6274,0,0,0,0,0,5.5606,5.5677,5.5675,5.5694,5.5794,5.5868,5.588,5.5894,5.587,5.5904,5.5927,5.5917,5.6051,5.6018,5.6034,5.6077,5.621,5.6216,5.6222,5.6253,5.6264,5.6274,0,0,0,0,0,0,5.5625,5.5685,5.5682,5.5774,5.5816,5.5866,5.591,5.5906,5.5954,5.5949,5.5961,5.5972,5.6048,5.607,5.6031,5.6161,5.6127,5.6136,5.6144,5.6156,5.6164,5.6157,5.6003,0,0,0,0,0,5.564,5.5699,5.5746,5.5822,5.5844,5.5873,5.5906,5.5913,5.5956,5.5973,5.6002,5.6041,5.6092,5.6125,5.6174,5.626,5.6269,5.6297,5.6306,5.6313,5.632,5.6365,5.6378,5.6245,5.6245,5.6244,0,0,5.5672,5.5712,5.5747,5.5827,5.5861,5.5918,5.5888,5.595,5.5991,5.5981,5.6055,5.6077,5.6121,5.6202,5.6239,5.6223,5.6359,5.632,5.6326,5.633,5.6373,5.6385,5.6396,5.6249,5.6248,5.6247,0,0,5.5758,5.5796,5.5863,5.5898,5.595,5.5969,5.5985,5.6035,5.605,5.6125,5.6119,5.6165,5.6254,5.6285,5.6312,5.6409,5.64,5.6425,5.647,5.6513,5.6524,5.6533,5.6566,5.6578,5.6432,5.6433,5.6433,0,5.579,5.5879,5.5896,5.5959,5.5993,5.599,5.6056,5.6087,5.6152,5.6173,5.6155,5.6265,5.6294,5.6381,5.6405,5.6428,5.6444,5.6419,5.6522,5.6531,5.654,5.6571,5.6584,5.6435,5.6435,5.6435,5.6434,0,5.5914,5.5975,5.6022,5.6089,5.6128,5.6191,5.6215,5.6252,5.6255,5.6274,5.6349,5.6384,5.644,5.6461,5.6464,5.6548,5.6536,5.652,5.6485,5.6555,5.6585,5.6597,5.6439,5.6438,5.6437,5.6436,0,0,5.6015,5.6091,5.6107,5.6136,5.6194,5.624,5.6301,5.6359,5.6389,5.6433,5.6483,5.6557,5.6543,5.6574,5.658,5.6618,5.669,5.6597,5.6598,5.6612,5.6783,5.6794,5.6808,5.6685,5.6687,5.6689,5.6778,0,5.6106,5.622,5.6237,5.6336,5.6391,5.6389,5.6442,5.6481,5.65,5.6547,5.6566,5.6619,5.6596,5.6614,5.6653,5.6674,5.6725,5.6668,5.6728,5.6731,5.6717,5.6824,5.6836,5.6919,5.679,5.6792,5.6794,0,5.6228,5.6278,5.6384,5.6433,5.6457,5.6505,5.6558,5.6604,5.6646,5.6657,5.6692,5.6693,5.6753,5.6717,5.6798,5.6759,5.6784,5.6798,5.6802,5.6807,5.6766,5.683,5.6946,5.6958,5.6812,5.6811,5.681,0,5.6289,5.6383,5.6458,5.6483,5.6543,5.6576,5.6602,5.6643,5.6675,5.672,5.6741,5.6791,5.6818,5.6856,5.6869,5.6841,5.6949,5.6914,5.6957,5.6956,5.6979,5.6977,5.7098,5.6997,5.6997,5.6997,5.6996,0,5.6388,5.6452,5.6487,5.6533,5.6603,5.662,5.6688,5.6712,5.6748,5.6795,5.6795,5.6838,5.6854,5.6899,5.6909,5.6974,5.6986,5.6994,5.6996,5.6994,5.6993,5.701,5.7004,5.7,5.6999,5.6999,5.6998,0,5.6468,5.6495,5.6576,5.6626,5.664,5.669,5.6731,5.6773,5.6792,5.6852,5.6867,5.6895,5.6949,5.6966,5.7029,5.7036,5.7111,5.7108,5.7098,5.7098,5.7139,5.7135,5.7275,5.7294,5.7181,5.7182,5.7183,0,5.653,5.658,5.6636,5.667,5.6697,5.6751,5.6786,5.6803,5.6838,5.689,5.6925,5.6979,5.7023,5.7107,5.7131,5.7179,5.7176,5.7222,5.7183,5.7179,5.7175,5.7172,5.7176,5.7229,5.723,5.7231,5.7232,0,5.6635,5.6645,5.6697,5.6753,5.6795,5.6839,5.6881,5.6908,5.6931,5.6969,5.7026,5.706,5.7126,5.7178,5.7227,5.7249,5.7243,5.7244,5.7257,5.7254,5.7246,5.725,5.7116,5.7241,5.724,5.7239,5.7239,5.7238,5.6706,5.675,5.6797,5.6854,5.6888,5.6928,5.697,5.6995,5.7044,5.7101,5.7107,5.7167,5.7206,5.7272,5.7296,5.734,5.7327,5.7345,5.7349,5.7353,5.7356,5.724,5.7349,5.7349,5.7349,5.7349,5.7348,0,5.681,5.6841,5.6893,5.6954,5.6998,5.6993,5.7039,5.7075,5.7129,5.7167,5.7211,5.7274,5.7325,5.7353,5.7402,5.7432,5.7431,5.7445,5.7442,5.7447,5.7366,5.735,5.7445,5.7445,5.7445,5.7445,5.7445,5.7445,5.687,5.6943,5.6959,5.7048,5.7076,5.7138,5.7165,5.7199,5.723,5.7302,5.7346,5.7365,5.7398,5.745,5.7495,5.7501,5.7519,5.7534,5.7539,5.7462,5.7452,5.7443,5.7428,5.7538,5.7538,5.7615,5.7616,5.7617]}]]